TimeCEST,TemperatureF,Dew PointF,Humidity,Sea Level PressureIn,VisibilityMPH,Wind Direction,Wind SpeedMPH,Gust SpeedMPH,PrecipitationIn,Events,Conditions,WindDirDegrees,DateUTC
12:55 AM,39.2,37.4,93,30.69,-9999.0,WSW,5.8,-,N/A,,Clear,240,2013-08-01 22:55:00
1:55 AM,41.0,6.8,24,30.69,-9999.0,South,10.4,-,N/A,,Clear,180,2013-08-01 23:55:00
2:00 AM,41,7,13,,6,South,10.4,,,,Partly Cloudy,180,2013-08-02 00:00:00
2:55 AM,41.0,6.8,24,30.66,-9999.0,SSW,10.4,-,N/A,,Clear,210,2013-08-02 00:55:00
3:55 AM,41.0,6.8,24,30.66,-9999.0,South,8.1,-,N/A,,Clear,190,2013-08-02 01:55:00
4:55 AM,41.0,12.2,31,30.66,-9999.0,WSW,5.8,-,N/A,,Clear,240,2013-08-02 02:55:00
5:00 AM,40,13,20,,6,WSW,5.8,,,,,240,2013-08-02 03:00:00
5:55 AM,41.0,6.8,24,30.66,-9999.0,SSW,15.0,-,N/A,,Clear,210,2013-08-02 03:55:00
6:55 AM,39.2,8.6,28,30.66,-9999.0,SW,17.3,-,N/A,,Clear,220,2013-08-02 04:55:00
7:55 AM,42.8,6.8,23,30.66,-9999.0,SW,17.3,-,N/A,,Clear,220,2013-08-02 05:55:00
8:00 AM,42,7,12,,31,SW,17.3,,,,,220,2013-08-02 06:00:00
8:55 AM,44.6,8.6,23,30.66,-9999.0,SW,15.0,-,N/A,,Clear,220,2013-08-02 06:55:00
9:55 AM,46.4,8.6,22,30.66,-9999.0,SW,12.7,-,N/A,,Clear,230,2013-08-02 07:55:00
10:55 AM,46.4,12.2,25,30.69,-9999.0,SW,10.4,-,N/A,,Clear,220,2013-08-02 08:55:00
11:00 AM,47,12,13,,31,SW,10.4,,,,,220,2013-08-02 09:00:00
11:55 AM,48.2,37.4,66,30.69,-9999.0,SW,8.1,-,N/A,,Clear,230,2013-08-02 09:55:00
12:55 PM,48.2,30.2,50,30.69,-9999.0,SW,6.9,-,N/A,,Clear,220,2013-08-02 10:55:00
1:55 PM,48.2,39.2,71,30.69,6.2,WSW,5.8,-,N/A,,Partly Cloudy,250,2013-08-02 11:55:00
2:00 PM,49,40,62,,6,WSW,5.8,,,,Scattered Clouds,250,2013-08-02 12:00:00
2:55 PM,50.0,41.0,71,30.69,6.2,SW,4.6,-,N/A,,Scattered Clouds,230,2013-08-02 12:55:00
3:55 PM,50.0,41.0,71,30.71,6.2,Variable,2.3,-,N/A,,Scattered Clouds,0,2013-08-02 13:55:00
4:55 PM,50.0,37.4,62,30.71,6.2,Variable,2.3,-,N/A,,Scattered Clouds,0,2013-08-02 14:55:00
5:00 PM,51,38,51,,6,,2.3,,,,Partly Cloudy,,2013-08-02 15:00:00
5:55 PM,50.0,37.4,62,30.71,6.2,Calm,Calm,-,N/A,,Partly Cloudy,0,2013-08-02 15:55:00
6:55 PM,50.0,41.0,71,30.71,6.2,Variable,2.3,-,N/A,,Scattered Clouds,0,2013-08-02 16:55:00
7:55 PM,50.0,35.6,58,30.71,-9999.0,Variable,2.3,-,N/A,,Clear,0,2013-08-02 17:55:00
8:00 PM,50,36,48,,19,,2.3,,,,,,2013-08-02 18:00:00
8:55 PM,48.2,26.6,43,30.74,-9999.0,Calm,Calm,-,N/A,,Clear,0,2013-08-02 18:55:00
9:55 PM,46.4,32.0,57,30.74,-9999.0,SW,6.9,-,N/A,,Clear,230,2013-08-02 19:55:00
10:55 PM,44.6,24.8,46,30.77,-9999.0,SW,5.8,-,N/A,,Clear,230,2013-08-02 20:55:00
11:00 PM,44,25,35,,9,SW,5.8,,,,,230,2013-08-02 21:00:00
11:55 PM,44.6,17.6,34,30.74,-9999.0,ESE,5.8,-,N/A,,Clear,120,2013-08-02 21:55:00